Flag for United Kingdom Weather past 2 weeks in Market Harborough, England, United Kingdom

Now
52 °F

Duststorm.


Feels Like: 52 °F
Forecast: 55 / 73 °F
Wind: 1 mph from Northeast

Location: Church Lawford

Current Time: Sep 16, 2014 at 4:09:04 AM

Latest Report: Sep 16, 2014 at 3:00 AM


Visibility: N/A

Pressure: 30.01 "Hg

Humidity: 99%

Dew point: 51 °F

Location of Market HarboroughLocation

Historic Weather in Market Harborough — Graph

°F

Market Harborough temperature yesterday

Maximum temperature yesterday: 65 °F (at 3:00 PM)
Minimum temperature yesterday: 54 °F (at 2:00 AM)
Average temperature yesterday: 59 °F

Past Weeks' High & Low Weather Summary

 TemperatureHumidityPressure
High71 °F (Sep 3, 5:00 PM)100% (Sep 2, 8:00 AM)30.36 "Hg (Sep 2, 8:00 AM)
Low41 °F (Sep 8, 7:00 AM)40% (Sep 7, 6:00 PM)29.93 "Hg (Sep 6, 5:00 PM)
Average59 °F81%30.15 "Hg
* Reported Sep 1 2:00 AM — Sep 16 2:00 AM, Market Harborough, Weather by CustomWeather, © 2014

Note: Actual official high and low records may vary slightly from our data, if they occured in-between our weather recording intervals... More about our weather records

Advertising

Market Harborough weather history for previous 24 hours

 ConditionsComfort  
Time TempWeatherWind HumidityBarometerVisibility
2:00 AM
Sep 16
54 °FDuststorm.1 mph99%30.01 "HgN/A
1:00 AM55 °FDuststorm.1 mph99%30.01 "HgN/A
12:00 AM56 °FCool.2 mph99%30.01 "HgN/A
11:00 PM
Sep 15
57 °FDuststorm.1 mph98%30.01 "HgN/A
10:00 PM59 °FDuststorm.2 mph98%30.01 "HgN/A
9:00 PM59 °FDuststorm.2 mph97%30.01 "HgN/A
8:00 PM61 °FDuststorm.3 mphN/A30.01 "Hg0 mi
7:00 PM62 °FDuststorm.1 mphN/A30.00 "Hg0 mi
6:00 PM63 °FDuststorm.1 mphN/A29.99 "Hg1 mi
5:00 PM62 °FDuststorm.1 mphN/A30.00 "Hg0 mi
4:00 PM65 °FDuststorm.6 mph77%30.01 "Hg0 mi
3:00 PM65 °FDuststorm.6 mph76%30.02 "Hg0 mi
2:00 PM65 °FDuststorm.8 mph78%30.03 "Hg0 mi
1:00 PM65 °FDuststorm.7 mph80%30.04 "Hg0 mi
12:00 PM61 °FDuststorm.7 mph87%30.06 "Hg0 mi
11:00 AM61 °FDrizzle. Cloudy.7 mph91%30.06 "Hg0 mi
10:00 AM59 °FRain. Cloudy.6 mph97%30.07 "Hg0 mi
9:00 AM58 °FRain. Cloudy.5 mph100%30.08 "Hg0 mi
8:00 AM56 °FRain showers. Cloudy.3 mph99%30.08 "Hg0 mi
7:00 AM56 °FDuststorm.5 mph98%30.09 "Hg0 mi
6:00 AM56 °FDuststorm.3 mph98%30.08 "Hg0 mi
5:00 AM55 °FDuststorm.6 mph98%30.10 "Hg0 mi
4:00 AM55 °FDuststorm.5 mph97%30.12 "Hg0 mi
Weather by CustomWeather, © 2014

See weather overviewHow to use our weather pages